Weather History for Alexandria, Egypt

Change the Weather History Date:

Sunday, September 8, 2013

  Actual Average Record
Temperature  
Mean Temperature 77 °F -  
Max Temperature 88 °F 82 °F 89 °F (1998)
Min Temperature 66 °F 68 °F 66 °F (2000)
Cooling Degree Days 12    
Growing Degree Days 27 (Base 50)    
Moisture  
Dew Point 67 °F    
Average Humidity 66    
Maximum Humidity 94    
Minimum Humidity 25    
Precipitation  
Precipitation 0.00 in 0.00 in - ()
Sea Level Pressure  
Sea Level Pressure 29.92 in    
Wind  
Wind Speed 4 mph ()    
Max Wind Speed 12 mph    
Max Gust Speed -    
Visibility 5.1 miles    
Events      
Averages and records for this station are not official NWS values.
T = Trace of Precipitation, MM = Missing Value Source: Averaged Metar Reports

Daily Weather History Graph

Daily Weather History Graph

Search for Another Location

Airport:

Trip Planner

Search our weather history database for the weather conditions in past years. The results will help you decide how hot, cold, wet, or windy it might be!

Date:

Astronomy

Sep. 08, 2013 Rise Set
Actual Time 5:40 AM EET 6:14 PM EET
Civil Twilight 5:15 AM EET 6:39 PM EET
Nautical Twilight 4:47 AM EET 7:08 PM EET
Astronomical Twilight 4:17 AM EET 7:37 PM EET
Moon 8:21 AM EET (9/8) 7:54 PM EET (9/8)
Length of Visible Light 13h 23m
Length of Day
12h 34m
Waxing Crescent, 9% of the Moon is Illuminated
Sep 8
Waxing Crescent
Sep 12
First Quarter
Sep 19
Full
Sep 27
Last Quarter
Oct 5
New

Hourly Weather History & Observations

Time (EET) Temp. Heat Index Dew Point Humidity Pressure Visibility Wind Dir Wind Speed Gust Speed Precip Events Conditions
12:00 AM 77.0 °F - 66.2 °F 69% 29.95 in - North 5.8 mph - N/A   Clear
1:00 AM 75.2 °F - 66.2 °F 73% 29.92 in - Calm Calm - N/A   Clear
2:00 AM 69.8 °F - 66.2 °F 88% 29.92 in - South 2.3 mph - N/A   Clear
3:00 AM 69.8 °F - 66.2 °F 88% 29.92 in - South 4.6 mph - N/A   Clear
4:00 AM 71.6 °F - 66.2 °F 83% 29.92 in - South 2.3 mph - N/A   Clear
5:00 AM 68.0 °F - 64.4 °F 88% 29.89 in - South 3.5 mph - N/A   Clear
6:00 AM 66.2 °F - 64.4 °F 94% 29.89 in 3.7 mi South 2.3 mph - N/A   Unknown
7:00 AM 71.6 °F - 66.2 °F 83% 29.92 in 3.7 mi Calm Calm - N/A   Unknown
8:00 AM 77 °F - 68 °F 66% 29.94 in 6 mi South 3.5 mph - -  
8:00 AM 77.0 °F - 68.0 °F 74% 29.92 in - South 3.5 mph - N/A   Clear
9:00 AM 80.6 °F 83.2 °F 68.0 °F 65% 29.95 in - SSW 2.3 mph - N/A   Clear
10:00 AM 86.0 °F 89.4 °F 68.0 °F 55% 29.95 in - ENE 3.5 mph - N/A   Clear
11:00 AM 87.8 °F 92.6 °F 69.8 °F 55% 29.95 in - NNW 5.8 mph - N/A   Clear
12:00 PM 87.8 °F 91.4 °F 68.0 °F 52% 29.95 in - NW 8.1 mph - N/A   Clear
1:00 PM 87.8 °F 91.4 °F 68.0 °F 52% 29.92 in - NW 11.5 mph - N/A   Clear
2:00 PM 88 °F - 57 °F 25% 29.94 in 6 mi NW 11.5 mph - -  
2:00 PM 87.8 °F 86.5 °F 57.2 °F 35% 29.92 in - NW 11.5 mph - N/A   Clear
3:00 PM 87.8 °F 91.4 °F 68.0 °F 52% 29.92 in - NNW 9.2 mph - N/A   Clear
4:00 PM 86.0 °F 87.3 °F 64.4 °F 48% 29.89 in - NNW 10.4 mph - N/A   Clear
5:00 PM 84.2 °F 85.6 °F 64.4 °F 51% 29.89 in - North 9.2 mph - N/A   Clear
6:00 PM 80.6 °F 83.2 °F 68.0 °F 65% 29.89 in - North 10.4 mph - N/A   Clear
7:00 PM 78.8 °F - 68.0 °F 69% 29.89 in - North 6.9 mph - N/A   Clear
8:00 PM 79 °F - 70 °F 68% 29.91 in 6 mi North 5.8 mph - -  
8:00 PM 78.8 °F - 69.8 °F 74% 29.89 in - North 5.8 mph - N/A   Clear
9:00 PM 78.8 °F - 69.8 °F 74% 29.89 in - North 5.8 mph - N/A   Clear
11:00 PM 78.8 °F - 69.8 °F 74% 29.89 in - North 5.8 mph - N/A   Clear